This is the latest recevied weather packets stored in our database for station/object EA3DJ-10. If no packets are shown the sender has not sent any weather packets the latest 10 day(s).
| Time | Temp. | Humidity | Pressure | Rain* | Wind** | Luminosity | Snow |
|---|---|---|---|---|---|---|---|
| 1787527064 | 28.33° C | 39% | 1017.3 hPa | - | - | - | - |
| 1787525864 | 30.56° C | 42% | 1017.4 hPa | - | - | - | - |
| 1787524664 | 30.56° C | 38% | 1017.3 hPa | - | - | - | - |
| 1787523464 | 28.89° C | 38% | 1017.3 hPa | - | - | - | - |
| 1787522264 | 28.33° C | 41% | 1017.1 hPa | - | - | - | - |
| 1787521064 | 28.33° C | 46% | 1017.2 hPa | - | - | - | - |
| 1787519864 | 30.56° C | 48% | 1017.4 hPa | - | - | - | - |
| 1787518663 | 30.56° C | 48% | 1017.6 hPa | - | - | - | - |
| 1787517463 | 30.56° C | 48% | 1017.7 hPa | - | - | - | - |
| 1787516263 | 30.56° C | 48% | 1017.8 hPa | - | - | - | - |
| 1787515063 | 30.56° C | 48% | 1017.4 hPa | - | - | - | - |
| 1787513863 | 30.56° C | 48% | 1017.1 hPa | - | - | - | - |
| 1787512663 | 30.56° C | 48% | 1017.1 hPa | - | - | - | - |
| 1787511463 | 30.56° C | 48% | 1016.8 hPa | - | - | - | - |
| 1787510258 | 30.56° C | 48% | 1016.5 hPa | - | - | - | - |
| 1787509058 | 30.56° C | 48% | 1016.5 hPa | - | - | - | - |
| 1787507857 | 31.11° C | 48% | 1016.5 hPa | - | - | - | - |
| 1787506657 | 31.11° C | 48% | 1016.7 hPa | - | - | - | - |
| 1787505457 | 31.11° C | 48% | 1016.9 hPa | - | - | - | - |
| 1787504257 | 31.11° C | 48% | 1016.9 hPa | - | - | - | - |
| 1787503057 | 31.11° C | 48% | 1017 hPa | - | - | - | - |
| 1787501857 | 31.11° C | 48% | 1016.9 hPa | - | - | - | - |
| 1787500656 | 30.56° C | 48% | 1017.1 hPa | - | - | - | - |
| 1787499456 | 30.56° C | 48% | 1017.2 hPa | - | - | - | - |
| 1787498256 | 30.56° C | 48% | 1017.2 hPa | - | - | - | - |
* Rain since midnight (hover to see other rain measurements)
** Current wind speed in m/s (hover to see current wind gust speed)